This is the latest recevied weather packets stored in our database for station/object HK3BJ-17. If no packets are shown the sender has not sent any weather packets the latest 10 day(s).
| Time | Temp. | Humidity | Pressure | Rain* | Wind** | Luminosity | Snow |
|---|---|---|---|---|---|---|---|
| 1787977795 | 10° C | 86% | 1020 hPa | 0 mm | - | - | - |
| 1787976853 | 10° C | 85% | 1020 hPa | 0 mm | - | - | - |
| 1787975911 | 10° C | 83% | 1020 hPa | 0 mm | - | - | - |
| 1787974970 | 10° C | 81% | 1020 hPa | 0 mm | - | - | - |
| 1787974029 | 10° C | 78% | 1020 hPa | 0 mm | - | - | - |
| 1787973084 | 10° C | 75% | 1020 hPa | 0 mm | - | - | - |
| 1787972140 | 10° C | 70% | 1020 hPa | 0 mm | - | - | - |
| 1787971199 | 10° C | 67% | 1020 hPa | 0 mm | - | - | - |
| 1787970256 | 10.56° C | 62% | 1020 hPa | 0 mm | - | - | - |
| 1787969312 | 10.56° C | 59% | 1020 hPa | 0 mm | - | - | - |
| 1787968364 | 10.56° C | 55% | 1020 hPa | 0 mm | - | - | - |
| 1787967417 | 11.11° C | 55% | 1019 hPa | 0 mm | - | - | - |
| 1787966475 | 11.67° C | 55% | 1018 hPa | 0 mm | - | - | - |
| 1787965526 | 11.67° C | 55% | 1018 hPa | 0 mm | - | - | - |
| 1787964583 | 11.67° C | 55% | 1018 hPa | 0 mm | - | - | - |
| 1787963626 | 12.22° C | 55% | 1018 hPa | 0 mm | - | - | - |
| 1787962677 | 12.78° C | 55% | 1017 hPa | 0 mm | - | - | - |
| 1787961723 | 15° C | 45% | 1017 hPa | 0 mm | - | - | - |
| 1787960772 | 15° C | 45% | 1017 hPa | 0 mm | - | - | - |
| 1787959829 | 15° C | 45% | 1016 hPa | 0 mm | - | - | - |
| 1787958873 | 15° C | 45% | 1015 hPa | 0 mm | - | - | - |
| 1787957929 | 17.22° C | 45% | 1015 hPa | 0 mm | - | - | - |
| 1787956982 | 15° C | 42% | 1015 hPa | 0 mm | - | - | - |
| 1787956035 | 15.56° C | 42% | 1013 hPa | 0 mm | - | - | - |
| 1787955081 | 15.56° C | 42% | 1013 hPa | 0 mm | - | - | - |
* Rain latest hour (hover to see other rain measurements)
** Current wind speed in m/s (hover to see current wind gust speed)